Weather History for Juliana Airport, Saint Maarten, Saint Maartin

Change the Weather History Date:

Tuesday, December 11, 2012

  Actual Average Record
Temperature  
Mean Temperature 80 °F -  
Max Temperature 84 °F 82 °F - ()
Min Temperature 76 °F 73 °F - ()
Cooling Degree Days 15    
Growing Degree Days 30 (Base 50)    
Moisture  
Dew Point 70 °F    
Average Humidity 70    
Maximum Humidity 78    
Minimum Humidity 55    
Precipitation  
Precipitation 0.04 in 0.10 in - ()
Sea Level Pressure  
Sea Level Pressure 29.98 in    
Wind  
Wind Speed 14 mph ()    
Max Wind Speed 22 mph    
Max Gust Speed 34 mph    
Visibility 7.8 miles    
Events Rain    
T = Trace of Precipitation, MM = Missing Value Source: Averaged Metar Reports

Daily Weather History Graph

Daily Weather History Graph

Search for Another Location

Airport:

Trip Planner

Search our weather history database for the weather conditions in past years. The results will help you decide how hot, cold, wet, or windy it might be!

Date:

Astronomy

Dec. 11, 2012 Rise Set
Actual Time 6:33 AM AST 5:38 PM AST
Civil Twilight 6:10 AM AST 6:01 PM AST
Nautical Twilight 5:43 AM AST 6:28 PM AST
Astronomical Twilight 5:16 AM AST 6:55 PM AST
Moon 4:31 AM AST (12/11) 4:07 PM AST (12/11)
Length of Visible Light 11h 51m
Length of Day
11h 04m
Waning Crescent, 4% of the Moon is Illuminated
Dec 11
Waning Crescent
Dec 13
New
Dec 20
First Quarter
Dec 28
Full
Jan 4
Last Quarter

Hourly Weather History & Observations

Time (AST) Temp. Heat Index Dew Point Humidity Pressure Visibility Wind Dir Wind Speed Gust Speed Precip Events Conditions
12:00 AM 78.8 °F - 69.8 °F 74% 29.98 in 6.2 mi East 13.8 mph - N/A   Partly Cloudy
1:00 AM 78.8 °F - 69.8 °F 74% 29.98 in 6.2 mi East 13.8 mph - N/A Rain Light Rain Showers
2:00 AM 79 °F - 70 °F 66% 29.96 in 19 mi ESE 15.0 mph - - Rain Light Rain Showers
2:00 AM 78.8 °F - 69.8 °F 74% 29.95 in 6.2 mi East 15.0 mph - N/A Rain Light Rain Showers
3:00 AM 78.8 °F - 69.8 °F 74% 29.95 in 6.2 mi East 15.0 mph - N/A   Mostly Cloudy
4:00 AM 78.8 °F - 68.0 °F 69% 29.95 in 6.2 mi East 16.1 mph - N/A   Scattered Clouds
5:00 AM 78 °F - 69 °F 68% 29.95 in 11 mi East 15.0 mph - - Rain Light Rain Showers
5:00 AM 77.0 °F - 69.8 °F 78% 29.95 in 6.2 mi East 15.0 mph - N/A Rain Light Rain Showers
6:00 AM 78.8 °F - 68.0 °F 69% 29.98 in 6.2 mi East 17.3 mph - N/A   Mostly Cloudy
7:00 AM 78.8 °F - 69.8 °F 74% 29.98 in 6.2 mi East 15.0 mph - N/A   Scattered Clouds
8:00 AM 80 °F - 69 °F 62% 30.01 in 22 mi East 16.1 mph - -   Partly Cloudy
8:00 AM 80.6 °F 83.9 °F 69.8 °F 70% 30.01 in 6.2 mi ENE 16.1 mph - N/A   Partly Cloudy
9:00 AM 80.6 °F 83.9 °F 69.8 °F 70% 30.01 in 6.2 mi ENE 20.7 mph - N/A   Scattered Clouds
9:28 AM 80.6 °F 83.9 °F 69.8 °F 70% 30.01 in 3.1 mi ENE 20.7 mph 34.5 mph N/A Rain Rain Showers
10:00 AM 80.6 °F 84.6 °F 71.6 °F 74% 30.01 in 6.2 mi East 18.4 mph - N/A   Scattered Clouds
11:00 AM 82 °F - 71 °F 62% 30.02 in 25 mi East 19.6 mph - -   Partly Cloudy
11:00 AM 82.4 °F 87.2 °F 71.6 °F 70% 30.01 in 6.2 mi East 19.6 mph - N/A   Scattered Clouds
12:00 PM 82.4 °F 87.2 °F 71.6 °F 70% 30.01 in 6.2 mi East 13.8 mph - N/A   Scattered Clouds
1:00 PM 82.4 °F 87.2 °F 71.6 °F 70% 29.98 in 6.2 mi East 11.5 mph - N/A   Mostly Cloudy
2:00 PM 84 °F - 70 °F 55% 29.97 in 19 mi East 21.9 mph - -   Partly Cloudy
2:00 PM 84.2 °F 88.4 °F 69.8 °F 62% 29.95 in 6.2 mi East 12.7 mph - N/A   Scattered Clouds
3:00 PM 82.4 °F 86.3 °F 69.8 °F 66% 29.95 in 6.2 mi East 13.8 mph - N/A   Partly Cloudy
4:00 PM 80.6 °F 84.6 °F 71.6 °F 74% 29.95 in 6.2 mi East 15.0 mph - N/A   Scattered Clouds
5:00 PM 80 °F - 72 °F 70% 29.97 in 9 mi East 20.7 mph - - Rain Light Rain Showers
5:00 PM 80.6 °F 84.6 °F 71.6 °F 74% 29.95 in 6.2 mi East 18.4 mph - N/A   Scattered Clouds
6:00 PM 80.6 °F 84.6 °F 71.6 °F 74% 29.98 in 6.2 mi ENE 16.1 mph - N/A   Scattered Clouds
7:00 PM 80.6 °F 83.9 °F 69.8 °F 70% 29.98 in 6.2 mi East 17.3 mph - N/A   Scattered Clouds
8:00 PM 80 °F - 71 °F 67% 30.00 in 16 mi ENE 17.3 mph - -   Mostly Cloudy
8:00 PM 78.8 °F - 71.6 °F 78% 29.98 in 6.2 mi ENE 17.3 mph - N/A   Scattered Clouds
9:00 PM 80.6 °F 84.6 °F 71.6 °F 74% 30.01 in 6.2 mi East 16.1 mph - N/A   Scattered Clouds
10:00 PM 80.6 °F 84.6 °F 71.6 °F 74% 30.01 in 6.2 mi East 16.1 mph 29.9 mph N/A   Scattered Clouds
11:00 PM 80 °F - 71 °F 67% 30.01 in 16 mi East 18.4 mph - -   Mostly Cloudy
11:00 PM 80.6 °F 84.6 °F 71.6 °F 74% 30.01 in 6.2 mi East 18.4 mph - N/A   Scattered Clouds